Location: �perlecques
(50.8057°N, 2.1521°E)
Time: 05:18:56
(UTC+00:00)

Vanguard 1 Rocket - Pass Details

Date: 31 July 2021
Orbit: 650 x 4226 km, 34.3° (Epoch: 22 September)

Event Time Altitude Azimuth Distance (km) Brightness Sun altitude
Rises 15:26:22 0° 263° (W) 5,097 12.1 37.5°
Reaches altitude 10° 15:33:36 10° 231° (SW) 3,174 11.3 36.5°
Maximum altitude 15:35:05 11° 219° (SW) 2,945 10.9 36.2°
Drops below altitude 10° 15:36:27 10° 207° (SSW) 2,832 10.6 36.0°
Sets 15:41:11 0° 168° (SSE) 3,283 10.3 35.3°
